{"data":{"norad_id":69580,"intl_designator":"2026-137J","name":"HULIANWANG DIGUI-177","alt_names":[],"object_type":"PAYLOAD","status":"ACTIVE","operator":null,"country":"PRC","launch_date":"2026-06-17","launch_site_code":"WSC","launch_vehicle":null,"mission":null,"orbit_class":"UNKNOWN","rcs_meters":null,"size_class":null,"mass_kg":null,"dimensions":null,"purposes":[],"wikipedia_slug":null,"has_3d_model":false,"image_url":null,"decayed_at":null,"tle_current":{"epoch":"2026-09-20T01:10:45.702912Z","epoch_age_seconds":68053,"freshness":"FRESH","line1":"1 69580U 26137J   26263.04914008 -.00000078  00000+0  10002-3 0  9993","line2":"2 69580  49.9975 255.3111 0000247 353.2049   6.8820 13.29326253 12968","mean_motion":13.29326253,"eccentricity":2.47e-5,"inclination_deg":49.9975,"raan_deg":255.3111,"arg_perigee_deg":353.2049,"mean_anomaly_deg":6.882,"bstar":0.00010002,"rev_number":1296,"period_min":108.32555189144,"perigee_km":1149.1196889292,"apogee_km":1149.4915445944,"semimajor_km":7527.4426167618,"source":"CELESTRAK","updated_at":"2026-09-20T09:00:24.995078Z"}}}